Wind_Speed
6 6 6 6 5 5 4 4 3 3 2 2 3 3 4 3 4 4 4 5 5 5 6 7 8 9 9 9 9 8 8 9 9 9 8 8 8 7 8 8 8 9 9
6 6 6 6 5 4 4 4 3 3 3 3 3 4 5 5 5 5 5 5 6 6 7 8 9 9 9 9 9 8 9 9 9 9 8 8 8 8 9 9 9 9 8
7 7 7 6 5 4 4 4 4 4 4 4 5 5 6 6 6 6 6 6 6 6 7 7 8 8 8 8 9 9 9 9 9 8 8 8 9 8 9 9 9 9 9
7 7 7 6 5 5 5 5 5 5 5 5 6 6 7 7 7 7 7 7 7 7 8 8 8 8 8 8 8 9 9 9 9 9 8 8 8 9 9 9 8 8 9
7 7 7 7 6 6 6 6 6 6 6 7 7 7 7 8 8 9 8 8 8 8 8 8 8 8 8 8 8 8 8 9 9 9 8 8 8 8 9 9 8 8 8
7 7 7 7 7 7 7 7 7 8 8 8 9 9 9 9 9 10 10 9 9 9 9 9 8 9 9 8 8 8 8 9 8 8 8 8 8 8 8 8 8 8 8
7 7 7 8 8 8 8 9 9 9 9 9 9 9 10 10 11 11 11 11 10 10 10 10 9 9 9 9 9 9 9 9 9 9 9 8 8 8 8 9 9 8 8
8 8 8 9 9 9 10 10 10 10 10 10 10 11 11 12 12 12 12 11 11 11 11 10 9 10 9 9 9 9 9 9 9 9 9 9 8 8 9 9 9 9 9
9 9 10 10 10 9 10 10 11 11 11 12 12 12 13 13 13 13 13 12 12 12 11 11 10 10 10 10 10 10 9 9 9 8 8 8 8 8 9 9 9 9 9
10 10 11 11 11 11 11 11 12 13 13 13 13 14 14 14 14 14 13 13 12 13 12 12 12 11 11 11 11 10 10 10 10 10 9 9 9 9 9 9 9 9 9
12 12 12 12 12 13 13 14 14 14 15 15 15 15 15 15 15 15 14 14 14 13 13 13 13 13 13 12 12 12 11 11 11 11 11 10 10 10 10 10 10 9 9
13 13 13 14 15 15 15 16 15 15 15 16 16 16 16 16 15 15 15 14 14 14 14 14 15 14 14 13 12 13 13 12 12 12 12 11 12 11 11 11 10 10 10
14 14 14 15 16 16 17 17 17 17 17 17 17 17 17 16 16 16 16 16 15 15 15 15 15 15 14 14 13 13 13 14 14 13 13 13 13 13 12 12 11 12 11
16 15 16 16 16 17 17 18 19 19 19 18 18 18 17 17 17 17 17 17 16 17 16 16 16 15 15 14 14 14 14 14 14 15 14 14 14 14 13 13 13 13 13
17 17 17 18 19 19 19 19 19 19 20 19 19 18 18 18 18 18 18 19 18 18 18 17 17 16 16 16 16 16 16 16 16 16 16 16 15 15 15 14 14 13 13
18 19 19 20 20 21 21 21 20 20 20 20 20 20 20 20 20 19 19 19 19 19 19 18 18 18 18 18 17 17 17 17 17 17 17 17 16 16 16 15 15 14 14
20 21 22 22 22 22 22 22 22 21 22 22 21 21 21 21 21 21 20 20 20 20 20 19 19 18 18 18 18 17 17 17 17 17 17 17 17 16 16 16 16 14 14
22 22 23 24 24 23 23 22 23 23 23 23 22 22 22 22 22 21 21 20 20 20 20 20 20 19 18 18 18 18 17 18 18 18 17 17 17 16 16 17 16 16 15
22 23 24 24 24 23 23 23 23 23 23 23 23 23 23 23 22 22 22 22 21 21 20 20 20 20 19 19 19 19 18 18 17 17 17 17 17 18 17 17 17 17 17
22 23 23 24 23 23 23 23 23 23 23 23 23 23 23 23 23 23 23 22 22 22 22 21 21 20 20 20 19 19 19 19 18 17 18 18 18 18 17 17 18 18 18
22 23 23 24 24 24 23 23 23 23 23 23 24 24 24 24 24 23 23 23 23 23 23 22 21 21 20 20 20 20 19 19 18 18 18 19 19 19 19 20 20 20 20
23 23 24 24 24 24 23 23 23 24 24 24 24 24 24 24 24 24 23 23 23 23 23 23 23 22 21 21 20 20 19 19 18 18 18 18 19 20 21 22 22 22 22
23 24 24 24 24 24 24 24 24 24 25 25 25 25 24 25 24 24 24 23 23 23 23 23 24 24 23 22 22 21 20 19 19 19 19 20 20 20 21 22 23 24 23
24 24 25 25 25 25 24 24 24 24 24 25 25 26 26 26 25 25 24 24 24 23 23 23 24 24 24 24 23 23 22 22 21 21 21 21 21 21 22 22 23 23 23
25 25 25 25 26 26 26 26 26 26 26 26 26 26 26 26 26 26 25 25 25 25 25 24 24 25 25 24 24 25 24 23 23 23 23 23 22 22 22 23 23 23 23
26 26 25 26 26 26 26 27 27 27 27 28 28 27 27 27 26 26 26 26 26 25 25 25 25 25 25 25 25 25 25 25 25 25 25 25 24 24 24 23 23 24 24
Wind_Direction
307 307 319 319 319 324 329 331 332 329 326 338 338 339 337 331 316 314 314 313 303 296 296 296 292 289 290 292 296 292 287 289 288 289 290 289 290 287 281 282 284 286 295
307 308 314 318 320 322 323 324 327 322 320 319 322 327 334 336 324 315 314 311 307 305 300 298 295 293 294 294 299 297 286 289 287 284 287 288 287 287 284 285 285 286 290
303 304 308 308 315 318 318 321 325 326 321 317 319 320 321 324 322 316 313 308 305 306 308 307 302 302 297 296 295 298 291 289 283 284 286 286 286 286 287 289 289 287 286
304 301 303 302 302 306 307 314 321 329 328 322 315 316 315 312 315 315 314 313 312 312 313 314 311 306 304 301 298 297 295 289 282 281 282 284 286 285 287 289 288 286 287
303 302 303 298 296 298 299 303 309 315 317 319 318 314 313 315 314 313 312 315 318 315 310 311 310 308 306 305 304 298 297 293 285 279 279 282 286 286 285 283 284 285 287
300 303 301 296 294 294 296 300 305 307 309 309 309 308 309 312 312 310 310 311 311 310 306 308 310 309 305 304 302 300 299 298 294 285 282 282 285 286 283 280 282 286 287
298 300 297 298 290 288 292 296 298 302 304 305 306 306 308 308 308 306 306 307 307 306 307 305 304 305 302 298 297 296 297 298 295 289 283 283 283 283 280 278 282 286 285
296 297 300 300 294 288 293 296 299 300 301 301 302 303 304 304 305 305 304 304 304 305 308 307 305 303 298 295 293 292 293 296 295 288 283 282 283 282 280 279 280 281 283
292 294 294 298 301 301 297 298 299 300 299 298 299 301 302 303 302 301 302 302 301 302 304 304 302 299 294 292 291 288 287 293 293 288 282 282 283 285 283 281 280 278 281
291 291 294 297 299 303 303 301 300 301 301 301 300 301 302 302 302 299 299 299 299 300 300 300 299 294 293 289 286 284 283 285 286 284 281 280 281 284 283 282 279 279 281
289 289 290 293 297 299 300 298 296 299 298 299 300 302 302 301 301 299 299 298 295 295 296 295 294 292 291 288 285 283 283 282 282 282 280 277 278 282 284 281 278 277 280
291 290 289 290 293 294 296 296 295 296 297 298 298 301 301 298 297 295 295 296 295 295 295 296 294 289 289 288 286 284 283 283 283 282 280 277 278 281 282 283 279 276 280
292 293 294 294 295 295 296 295 294 295 296 297 295 298 299 296 295 294 293 293 291 291 292 294 294 289 288 287 285 284 283 281 279 278 280 276 276 277 277 279 279 279 279
288 290 293 295 297 297 297 296 294 293 294 296 296 296 298 296 294 294 293 294 291 290 291 290 292 290 286 286 285 283 281 278 275 275 278 277 277 274 273 277 280 278 275
289 291 291 292 294 295 295 295 293 291 292 294 297 296 296 295 295 294 293 292 291 291 290 288 290 288 287 284 283 282 282 277 277 278 276 276 276 272 272 273 276 276 275
287 288 289 290 290 290 291 292 290 288 290 291 292 293 294 294 292 293 293 290 289 290 290 289 288 288 287 286 280 280 281 280 279 276 273 274 274 270 270 272 271 272 275
284 285 288 289 289 288 287 287 288 288 287 287 287 289 289 291 291 291 293 290 288 288 288 289 289 289 286 283 281 279 279 278 276 275 274 274 274 271 271 269 270 272 274
286 286 289 289 289 287 286 286 286 287 287 285 285 285 287 288 288 288 289 289 287 286 286 288 289 289 287 284 283 282 280 279 275 272 272 273 272 271 269 269 270 271 272
287 288 290 291 291 289 287 286 285 286 286 285 284 283 284 286 286 287 287 287 286 285 284 285 286 286 287 285 282 281 280 278 275 272 271 271 270 270 268 268 270 270 270
290 290 290 292 291 290 290 289 288 287 286 285 284 284 284 285 285 287 286 286 286 284 283 284 285 285 284 284 284 282 280 278 274 273 272 268 266 268 267 267 269 269 270
292 292 291 292 292 291 290 289 289 287 286 286 286 286 286 286 287 287 287 286 284 283 281 281 283 283 281 281 281 282 281 277 272 271 271 269 267 268 269 268 269 269 271
296 295 295 294 293 291 290 290 290 287 286 286 285 285 285 285 286 288 287 286 285 284 283 280 280 280 280 280 281 282 280 277 272 272 275 273 268 266 268 269 269 269 270
298 297 296 296 295 293 292 292 293 288 286 285 285 285 284 284 283 285 286 287 286 285 284 281 279 279 279 280 280 279 278 277 273 271 274 274 272 270 269 269 270 270 270
296 296 296 295 294 293 292 292 292 289 286 285 284 284 284 284 284 285 284 285 286 286 285 284 281 278 277 277 276 276 274 275 273 271 271 271 272 272 272 272 272 271 271
295 295 296 296 295 293 292 292 290 288 286 285 285 284 284 285 283 283 283 282 283 284 283 283 281 279 276 275 274 273 273 273 272 272 271 271 272 273 272 273 274 274 273
294 295 295 296 296 295 292 291 290 289 287 285 284 284 284 284 284 283 282 282 282 282 282 280 279 277 274 272 272 272 272 272 272 272 272 272 273 273 272 273 272 273 272
Height
5878 5878 5878 5877 5876 5875 5875 5874 5874 5874 5874 5873 5873 5873 5872 5872 5871 5871 5871 5871 5871 5871 5871 5871 5871 5870 5870 5870 5870 5869 5869 5869 5869 5869 5869 5869 5869 5870 5870 5870 5870 5870 5869
5877 5877 5877 5877 5876 5875 5874 5874 5874 5873 5873 5873 5872 5872 5872 5871 5871 5870 5870 5870 5870 5869 5869 5869 5869 5868 5868 5868 5868 5868 5867 5867 5867 5867 5867 5867 5868 5868 5868 5868 5868 5867 5867
5877 5877 5877 5876 5876 5875 5874 5874 5873 5873 5873 5872 5872 5872 5871 5870 5870 5869 5869 5868 5868 5868 5867 5867 5867 5866 5866 5866 5866 5866 5865 5865 5865 5865 5865 5865 5866 5866 5866 5866 5865 5865 5865
5876 5876 5876 5875 5875 5874 5874 5873 5873 5872 5872 5872 5872 5871 5870 5870 5869 5868 5868 5866 5866 5866 5866 5866 5865 5865 5864 5864 5864 5864 5863 5863 5863 5863 5863 5864 5864 5864 5864 5864 5863 5863 5863
5875 5875 5874 5874 5873 5873 5873 5872 5872 5872 5871 5871 5871 5870 5869 5868 5867 5867 5866 5865 5865 5864 5864 5864 5863 5863 5862 5862 5862 5862 5861 5861 5861 5861 5861 5861 5862 5862 5862 5861 5861 5861 5861
5874 5873 5873 5873 5872 5872 5872 5871 5871 5871 5870 5870 5869 5869 5868 5867 5866 5865 5864 5863 5863 5863 5862 5862 5861 5861 5860 5860 5860 5860 5860 5860 5859 5859 5859 5859 5860 5860 5860 5859 5859 5859 5859
5872 5872 5872 5871 5871 5871 5871 5870 5870 5869 5869 5868 5868 5867 5867 5866 5865 5864 5863 5862 5861 5861 5860 5860 5859 5858 5858 5858 5858 5858 5858 5858 5858 5858 5858 5858 5857 5857 5857 5857 5857 5857 5857
5871 5871 5870 5870 5870 5869 5869 5868 5868 5867 5867 5866 5866 5866 5865 5864 5863 5862 5861 5860 5859 5858 5858 5857 5857 5856 5856 5856 5856 5856 5856 5856 5855 5855 5855 5855 5855 5855 5855 5855 5855 5855 5855
5869 5869 5869 5868 5868 5867 5867 5867 5866 5866 5865 5865 5864 5863 5862 5861 5860 5859 5858 5858 5857 5856 5856 5855 5855 5854 5854 5854 5853 5853 5853 5853 5853 5853 5853 5853 5853 5853 5853 5853 5853 5853 5853
5867 5867 5867 5866 5866 5865 5865 5864 5864 5864 5863 5862 5861 5860 5859 5858 5857 5857 5856 5855 5854 5854 5853 5852 5852 5852 5851 5851 5851 5850 5850 5850 5850 5850 5850 5851 5851 5850 5850 5850 5850 5850 5850
5864 5864 5864 5864 5863 5863 5862 5862 5861 5861 5860 5859 5858 5858 5856 5855 5854 5853 5853 5852 5851 5851 5850 5849 5849 5849 5848 5848 5847 5847 5847 5847 5847 5847 5848 5848 5848 5848 5848 5848 5848 5848 5848
5862 5862 5861 5861 5860 5860 5859 5859 5858 5857 5857 5856 5855 5854 5853 5852 5851 5850 5849 5848 5848 5847 5846 5846 5846 5845 5845 5844 5844 5844 5844 5844 5844 5844 5844 5845 5845 5845 5845 5845 5845 5845 5845
5858 5858 5858 5857 5857 5856 5856 5855 5854 5854 5853 5852 5851 5850 5849 5848 5847 5846 5846 5845 5844 5844 5843 5843 5842 5841 5841 5841 5841 5840 5840 5840 5840 5841 5841 5841 5841 5842 5842 5842 5842 5842 5842
5855 5855 5854 5854 5853 5852 5852 5851 5851 5850 5849 5848 5848 5847 5846 5845 5844 5843 5842 5840 5839 5840 5839 5839 5838 5837 5837 5837 5837 5837 5836 5836 5836 5837 5837 5838 5838 5838 5838 5839 5839 5839 5839
5851 5850 5850 5850 5849 5848 5848 5847 5846 5846 5845 5844 5843 5843 5841 5840 5839 5838 5837 5836 5836 5836 5835 5834 5834 5833 5833 5833 5833 5833 5832 5832 5833 5833 5833 5834 5834 5834 5835 5835 5835 5835 5835
5846 5846 5845 5845 5844 5843 5843 5842 5842 5841 5841 5840 5839 5838 5837 5836 5835 5834 5833 5832 5831 5831 5830 5830 5830 5829 5828 5828 5828 5828 5828 5828 5828 5828 5829 5830 5830 5830 5831 5831 5831 5832 5832
5842 5841 5840 5839 5838 5838 5837 5837 5836 5836 5835 5835 5834 5833 5832 5831 5830 5829 5828 5827 5826 5826 5825 5825 5824 5824 5823 5823 5823 5823 5823 5823 5823 5824 5824 5825 5825 5826 5826 5827 5827 5828 5828
5836 5835 5834 5833 5833 5832 5831 5831 5830 5830 5829 5829 5828 5828 5827 5826 5825 5824 5823 5822 5821 5821 5820 5820 5819 5819 5818 5818 5818 5818 5819 5819 5819 5819 5820 5820 5821 5821 5822 5822 5823 5823 5823
5831 5830 5829 5828 5827 5826 5825 5825 5824 5824 5823 5822 5822 5821 5821 5820 5819 5819 5817 5816 5816 5815 5815 5815 5814 5814 5814 5813 5813 5813 5814 5814 5814 5814 5815 5816 5816 5817 5817 5818 5818 5818 5819
5826 5825 5824 5823 5821 5821 5820 5819 5818 5817 5817 5816 5816 5815 5814 5814 5813 5813 5812 5811 5810 5810 5809 5809 5809 5809 5808 5808 5808 5808 5809 5809 5809 5809 5810 5810 5811 5812 5812 5812 5813 5813 5814
5821 5819 5818 5817 5816 5815 5814 5813 5812 5812 5811 5810 5809 5809 5808 5807 5807 5806 5806 5805 5804 5804 5803 5803 5803 5803 5803 5803 5802 5803 5803 5803 5803 5804 5804 5805 5806 5806 5807 5807 5807 5808 5808
5815 5814 5813 5811 5810 5809 5808 5807 5806 5805 5805 5804 5803 5802 5801 5800 5800 5800 5799 5799 5798 5798 5797 5797 5797 5797 5797 5797 5797 5797 5797 5797 5798 5799 5799 5800 5800 5800 5801 5801 5801 5802 5802
5810 5808 5807 5805 5804 5803 5802 5801 5800 5799 5798 5797 5797 5796 5795 5794 5793 5793 5793 5792 5792 5791 5791 5791 5791 5791 5791 5791 5791 5791 5792 5792 5792 5793 5793 5794 5794 5794 5794 5795 5795 5795 5796
5804 5802 5801 5799 5798 5797 5796 5794 5793 5792 5791 5790 5790 5789 5788 5788 5787 5787 5786 5786 5785 5785 5784 5784 5784 5784 5784 5784 5785 5785 5785 5786 5786 5786 5787 5787 5787 5788 5788 5788 5788 5788 5788
5798 5796 5795 5793 5792 5790 5789 5788 5787 5786 5785 5784 5783 5782 5781 5781 5780 5779 5779 5779 5778 5778 5777 5777 5777 5777 5777 5777 5778 5778 5778 5779 5779 5780 5780 5780 5780 5781 5781 5781 5781 5781 5781
5791 5790 5788 5787 5785 5783 5782 5780 5779 5778 5777 5776 5775 5775 5774 5773 5773 5772 5772 5771 5771 5771 5770 5770 5769 5769 5769 5770 5770 5771 5771 5771 5772 5773 5773 5773 5773 5773 5774 5774 5774 5774 5774